Regional Weather Roundup
Issued by NWS

Home | Current Version | Previous Version | Graphics & Text | Print | Product List | Glossary On
Versions: 1 2 3 4 5 6 7 8 9 10 11 12 13 14 15 16 17 18 19 20 21 22 23 24 25 26 27 28 29 30 31 32 33 34 35 36 37 38 39 40 41 42 43 44 45 46 47 48 49 50
000
ASUS45 KSLC 010110
RWRUT

UTAH REGIONAL WEATHER ROUNDUP
NATIONAL WEATHER SERVICE SALT LAKE CITY UT
600 PM MST SAT JAN 31 2015

UTZ001>011-023>025-010200-

NORTHERN UTAH

CITY           SKY/WX    TMP DP  RH WIND       PRES   REMARKS
BRIGHAM CITY   PTCLDY    41  29  63 N8        30.09R
HILL AFB       CLEAR     38  24  57 W7        30.08R WCI  32
LOGAN          CLEAR     35  29  78 N7        30.10R WCI  29
OGDEN          CLEAR     39  29  67 SW5       30.08R
PROVO AIRPORT  PTCLDY    39  28  65 NW12      30.07R WCI  32
SALT LAKE CITY PTCLDY    41  29  62 W8        30.09R
VERNAL         CLEAR     36  33  89 S5        29.96R WCI  32
WENDOVER         N/A     45  27  49 CALM      30.09R
HEBER CITY     PTCLDY    36  30  80 SW9       30.04R WCI  29
WEST JORDAN    CLEAR     37  30  75 NW9       30.09R WCI  31

$$

UTZ012>022-026-027-010200-

SOUTHERN/CENTRAL UTAH

CITY           SKY/WX    TMP DP  RH WIND       PRES   REMARKS
BLANDING       PTCLDY    37  35  90 CALM      30.01R
BRYCE CANYON   PTCLDY    31  29  92 W6        30.01R WCI  25
CEDAR CITY     CLOUDY    38  34  85 NE10      30.03R WCI  31
DELTA          CLEAR     38  36  91 S7        30.08R WCI  33
HANKSVILLE     CLEAR     45  37  76 CALM      29.96S
MILFORD        MOCLDY    41  34  76 N6        30.07R
MOAB/CYNLANDS  CLEAR     42  38  85 SE3       29.93S
PRICE          PTCLDY    43  22  43 NW18G28   29.95R
ST GEORGE      PTCLDY    55  39  54 NW6       29.96R
KANAB          CLEAR     45  32  61 NW8       29.99S

$$

REGIONAL REPORTS     COLORADO/ARIZONA

CITY           SKY/WX    TMP DP  RH WIND       PRES   REMARKS
CRAIG, CO      PTCLDY    32  25  75 CALM      29.93R
GRAND JUNCTION MOCLDY    40  38  93 NE6       29.94R
RIFLE          CLOUDY    40  28  62 W12       29.94R WCI  33
MONTROSE       CLOUDY    38  35  89 S6        29.97R WCI  33
CORTEZ         MOCLDY    37  34  89 SW5       29.93R WCI  33
PAGE, AZ       NOT AVBL
GRAND CANYON   MOCLDY    40  33  76 NE6       29.98R
KINGMAN        PTCLDY    53  42  66 N13       29.93R
FLAGSTAFF      MOCLDY    40  34  79 E8        29.97R WCI  34

$$

REGIONAL REPORTS    NEVADA/IDAHO/WYOMING

CITY           SKY/WX    TMP DP  RH WIND       PRES   REMARKS
LAS VEGAS, NV  PTCLDY    61  38  42 E5        29.90S
ELY            CLEAR     42  19  39 N16       30.08R
ELKO           CLEAR     41  27  57 SW10      30.14R
POCATELLO, ID  PTCLDY    30  28  92 W6        30.13R WCI  24
BURLEY         CLEAR     34  27  75 W8        30.13R WCI  27
EVANSTON, WY   CLEAR     34  22  61 N6        30.05R WCI  29
ROCK SPRINGS   CLEAR     34   5  29 W18G24    29.93R WCI  23
KEMMERER       CLEAR     30  19  64 W7        30.02R WCI  23

$$



USA.gov is the U.S. government's official web portal to all federal, state and local government web resources and services.